Torna al catalogo

FENGYUN 1C DEB

AttivoSSO
NORAD 37436·DEBRIS·🇨🇳 China

Lanciato May 10, 1999 da Taiyuan Satellite Launch Center

Loading…

Prossimi Passaggi (prossime 24 ore)

TLE

In scadenzaSource: Space-Track

Epoca: Sep 8, 2026, 09:07 UTC

1 37436U 99025EHE 26251.38042964  .00000643  00000-0  40662-3 0  9994
2 37436  98.9077 307.0071 0059520 113.4938 247.2500 14.06754112677891

Traccia FENGYUN 1C DEB in tempo reale con AllMySat

Download on the App Store